Time,TemperatureF,DewpointF,PressureIn,WindDirection,WindDirectionDegrees,WindSpeedMPH,WindSpeedGustMPH,Humidity,HourlyPrecipIn,Conditions,Clouds,dailyrainin,SolarRadiationWatts/m^2,SoftwareType,DateUTC
2013-06-23 00:00:00,64.0,63.0,30.13,ESE,105,0.0,-999.0,99,-99.99,,,-99.99,0.000000,,2013-06-23 05:00:00,
2013-06-23 01:00:00,62.0,62.0,30.11,SSE,164,0.0,-999.0,99,-99.99,,,0.00,0.000000,,2013-06-23 06:00:00,
2013-06-23 02:00:00,61.0,61.0,30.09,North,0,0.0,-999.0,99,-99.99,,,-99.99,0.000000,,2013-06-23 07:00:00,
2013-06-23 03:00:00,60.0,60.0,30.08,North,0,0.0,-999.0,100,-99.99,,,-99.99,0.000000,,2013-06-23 08:00:00,
2013-06-23 04:00:00,59.0,59.0,30.09,NE,56,0.0,-999.0,100,-99.99,,,-99.99,0.000000,,2013-06-23 09:00:00,
2013-06-23 06:00:00,60.0,60.0,30.13,NNE,28,0.0,-999.0,100,-99.99,,,-99.99,5.310000,,2013-06-23 11:00:00,
2013-06-23 07:00:00,65.0,65.0,30.13,SE,128,0.0,-999.0,99,-99.99,,,-99.99,97.599998,,2013-06-23 12:00:00,
2013-06-23 08:00:00,72.0,65.0,30.14,SSE,150,2.0,-999.0,80,-99.99,,,-99.99,303.000000,,2013-06-23 13:00:00,
2013-06-23 09:00:00,77.0,68.0,30.16,SE,141,2.0,-999.0,74,-99.99,,,-99.99,436.899994,,2013-06-23 14:00:00,
2013-06-23 10:00:00,80.0,69.0,30.16,SSE,149,2.0,-999.0,68,-99.99,,,-99.99,612.000000,,2013-06-23 15:00:00,
2013-06-23 11:00:00,83.0,68.0,30.16,SE,143,2.0,-999.0,59,-99.99,,,-99.99,763.000000,,2013-06-23 16:00:00,
2013-06-23 11:53:00,83.0,68.0,30.16,SE,143,2.0,-999.0,59,-99.99,,,-99.99,763.000000,,2013-06-23 16:53:00,
2013-06-23 12:00:00,84.0,69.0,30.15,SSE,153,2.0,-999.0,60,-99.99,,,-99.99,750.000000,,2013-06-23 17:00:00,
2013-06-23 12:53:00,84.0,69.0,30.15,SSE,153,2.0,-999.0,60,-99.99,,,-99.99,750.000000,,2013-06-23 17:53:00,
2013-06-23 13:00:00,84.0,66.0,30.13,SSE,165,3.0,-999.0,56,-99.99,,,-99.99,871.000000,,2013-06-23 18:00:00,
2013-06-23 13:53:00,84.0,66.0,30.13,SSE,165,3.0,-999.0,56,-99.99,,,-99.99,871.000000,,2013-06-23 18:53:00,
2013-06-23 14:00:00,87.0,65.0,30.11,SSE,147,2.0,-999.0,48,-99.99,,,-99.99,789.000000,,2013-06-23 19:00:00,
2013-06-23 15:00:00,87.0,64.0,30.11,SE,129,2.0,-999.0,46,-99.99,,,-99.99,728.000000,,2013-06-23 20:00:00,
2013-06-23 15:53:00,87.0,64.0,30.11,SE,129,2.0,-999.0,46,-99.99,,,-99.99,728.000000,,2013-06-23 20:53:00,
2013-06-23 16:00:00,87.0,66.0,30.10,SSE,164,3.0,-999.0,49,-99.99,,,-99.99,729.000000,,2013-06-23 21:00:00,
2013-06-23 17:00:00,86.0,68.0,30.10,SSE,166,3.0,-999.0,54,-99.99,,,-99.99,592.500000,,2013-06-23 22:00:00,
2013-06-23 18:00:00,84.0,67.0,30.09,SSE,159,3.0,-999.0,57,-99.99,,,-99.99,380.200012,,2013-06-23 23:00:00,
2013-06-23 18:52:00,84.0,67.0,30.09,SSE,159,3.0,-999.0,57,-99.99,,,-99.99,380.200012,,2013-06-23 23:52:00,
2013-06-23 19:00:00,81.0,70.0,30.08,SSE,159,2.0,-999.0,68,-99.99,,,-99.99,176.100006,,2013-06-24 00:00:00,
2013-06-23 20:00:00,75.0,70.0,30.08,SSE,152,0.0,-999.0,84,-99.99,,,-99.99,29.980000,,2013-06-24 01:00:00,
2013-06-23 20:53:00,75.0,70.0,30.08,SSE,152,0.0,-999.0,84,-99.99,,,-99.99,29.980000,,2013-06-24 01:53:00,
2013-06-23 21:00:00,70.0,69.0,30.09,ESE,116,0.0,-999.0,95,-99.99,,,-99.99,0.750000,,2013-06-24 02:00:00,
2013-06-23 22:00:00,68.0,68.0,30.12,SSE,153,0.0,-999.0,98,-99.99,,,-99.99,0.000000,,2013-06-24 03:00:00,
2013-06-23 23:00:00,68.0,67.0,30.14,NNW,338,0.0,-999.0,98,-99.99,,,-99.99,0.000000,,2013-06-24 04:00:00,
2013-06-23 23:53:00,68.0,67.0,30.14,NNW,338,0.0,-999.0,98,-99.99,,,-99.99,0.000000,,2013-06-24 04:53:00,